Regional Weather Roundup
Issued by NWS Albany, NY

Home | Current Version | Previous Version | Text Only | Print | Product List | Glossary On
Versions: 1 2 3 4 5 6 7 8 9 10 11 12 13 14 15 16 17 18 19 20 21 22 23 24 25 26 27 28 29 30 31 32 33 34 35 36 37 38 39 40 41 42 43 44 45 46 47 48 49 50
000
ASUS41 KALY 280510
RWRALY

NEW YORK STATE HOURLY WEATHER ROUNDUP
NATIONAL WEATHER SERVICE ALBANY NY
100 AM EDT WED JUN 28 2017

NOTE: "FAIR" INDICATES FEW OR NO CLOUDS BELOW 12,000 FEET WITH NO
SIGNIFICANT WEATHER AND/OR NO OBSTRUCTIONS TO VISIBILITY.

NYZ032-033-038>043-046>054-057>066-NYZ062>081-082-084-280600-
EAST


CITY           SKY/WX    TMP DP  RH WIND       PRES   REMARKS
ALBANY         MOCLDY    55  51  86 CALM      30.00S
GLENS FALLS    CLOUDY    51  50  96 CALM      29.98S
POUGHKEEPSIE   CLEAR     53  51  93 CALM      30.01R
NEWBURGH       CLEAR     55  52  88 W6        30.03S
MONTGOMERY     CLEAR     52  49  89 SW5       30.03R
WHITE PLAINS   CLEAR     58  51  78 CALM      30.02R
ISLIP          MOCLDY    63  55  75 N6        30.00F
NEW YORK CITY  PTCLDY    68  52  56 NW15      30.02R
CENTRAL PARK   CLEAR     67  49  52 VRB6      30.05R
$$

NYZ005>009-017-018-044>046-055-056-280600-
CENTRAL


CITY           SKY/WX    TMP DP  RH WIND       PRES   REMARKS
FULTON         PTCLDY    56  53  90 SW6       30.02R
SYRACUSE       PTCLDY    56  54  93 SW8       30.02R
ROME           CLOUDY    55  54  96 CALM      30.03R
ELMIRA         CLOUDY    56  50  80 W9        30.06R
BINGHAMTON     CLEAR     51  49  92 W8        30.05S
MONTICELLO     CLEAR     50  48  93 W5        30.05S
$$

NYZ026>034-041>043-087-280600-
NORTH


CITY           SKY/WX    TMP DP  RH WIND       PRES   REMARKS
WATERTOWN      MOCLDY    59  56  89 W7        29.99R
FORT DRUM      NOT AVBL
OGDENSBURG     FAIR      55  54  94 SW5       29.96R
MASSENA        CLOUDY    57  55  93 SW6       29.95R
SARANAC LAKE   LGT RAIN  51  51 100 S3        29.95S
PLATTSBURGH    CLOUDY    55  52  89 CALM      29.94S
$$

NYZ001>004-010>016-019>021-085-280600-
WEST


CITY           SKY/WX    TMP DP  RH WIND       PRES   REMARKS
NIAGARA FALLS  MOCLDY    59  50  72 SW8       30.04S
BUFFALO        PTCLDY    61  53  75 W8        30.05R
DUNKIRK        CLOUDY    57  49  74 S8        30.07S
JAMESTOWN      CLEAR     54  45  71 SW5       30.09F
WELLSVILLE     CLEAR     52  46  80 W7        30.10F
ROCHESTER      CLEAR     54  49  83 SW7       30.04R
PENN YAN       MOCLDY    57  49  74 SW6       30.06R
$$

             KEY
       WCI = WIND CHILL INDEX
       VSB = VISIBILITY
       HX  = HEAT INDEX
$$



USA.gov is the U.S. government's official web portal to all federal, state and local government web resources and services.